Regional Weather Roundup
Issued by NWS Upton, NY

Current Version | Previous Version | Graphics & Text | Print | Product List | Glossary Off
Versions: 1 2 3 4 5 6 7 8 9 10 11 12 13 14 15 16 17 18 19 20 21 22 23 24 25 26 27 28 29 30 31 32 33 34 35 36 37 38 39 40 41 42 43 44 45 46 47 48

000
ASUS41 KOKX 010605
RWROKX

REGIONAL WEATHER ROUNDUP
NATIONAL WEATHER SERVICE NEW YORK NY
200 AM EDT FRI AUG 01 2014

NOTE: "FAIR" INDICATES FEW OR NO CLOUDS BELOW 12,000 FEET WITH NO
SIGNIFICANT WEATHER AND/OR OBSTRUCTIONS TO VISIBILITY.

NYZ071-072-176-178-NJZ106-104-010700-
NEW YORK CITY METRO AREA


CITY           SKY/WX    TMP DP  RH WIND       PRES   REMARKS
CENTRAL PARK   CLEAR     73  64  73 CALM      30.18S
LAGUARDIA APRT PTCLDY    73  64  73 S9        30.15R
KENNEDY INTL   MOCLDY    72  68  87 S10       30.17S
NEWARK/LIBERTY MOCLDY    72  65  78 S6        30.16R
BRNX BOT. GARD   N/A     72  64  78 SE7       30.18R
TETERBORO      CLEAR     74  64  71 CALM      30.14S
$$

NYZ177-179-078>081-010700-
LONG ISLAND NEW YORK

CITY           SKY/WX    TMP DP  RH WIND       PRES   REMARKS
FARMINGDALE    PTCLDY    71  68  90 SW6       30.17S
ISLIP          MOCLDY    73  68  84 S6        30.16S
SHIRLEY        MOCLDY    71  67  87 S5        30.18S
WESTHAMPTON    MOCLDY    71  66  84 S6        30.20S
MONTAUK POINT    N/A     71  66  84 S7        30.19S
$$

NYZ052-065-067-010700-
HUDSON VALLEY

CITY           SKY/WX    TMP DP  RH WIND       PRES   REMARKS
WHITE PLAINS   CLEAR     65  64  97 CALM      30.16S
NEWBURGH       MOCLDY    64  61  88 CALM      30.17S
MONTGOMERY     PTCLDY    61  59  93 CALM      30.15S
POUGHKEEPSIE   CLEAR     64  61  90 CALM      30.14S
ALBANY         PTCLDY    62  60  93 CALM      30.14S
$$

NJZ001-105-106-008-010-013-015-019>022-104-010700-
NEW JERSEY

CITY           SKY/WX    TMP DP  RH WIND       PRES   REMARKS
NEWARK/LIBERTY MOCLDY    72  65  78 S6        30.16R
TETERBORO      CLEAR     74  64  71 CALM      30.14S
CALDWELL       CLEAR     65  60  84 CALM      30.16S
MORRISTOWN     CLEAR     63  59  88 CALM      30.16R
SOMERVILLE     CLEAR     63  60  90 CALM      30.14S
LINDEN         FAIR      73  65  77 S5        30.17S
SUSSEX         PTCLDY    63  60  90 SW3       30.16S
ANDOVER          N/A     62  61  96 CALM      30.17S
TRENTON        PTCLDY    68  64  87 S3        30.15S
MILLVILLE      PTCLDY    71  68  90 VRB3      30.17S
ATLANTIC CITY  PTCLDY    72  68  87 MISG      30.17S
WRIGHTSTOWN    MOCLDY    68  66  94 S6        30.15R
TOMS RIVER     PTCLDY    70  66  88 CALM      30.18R
BELMAR         MOCLDY    72  64  78 SW6       30.17R
$$

PAZ047>061-062-071-010700-
EASTERN PENNSYLVANIA

CITY           SKY/WX    TMP DP  RH WIND       PRES   REMARKS
PHILADELPHIA   CLOUDY    73  67  81 SE5       30.17R
ALLENTOWN      CLEAR     65  61  87 NW6       30.15S
SCRANTON       CLOUDY    67  58  72 E5        30.16R
$$

CTZ002-004>006-009-010-012-RIZ004-006-007-MAZ004-011-015-010700-
SOUTHERN NEW ENGLAND
 IN CT

CITY           SKY/WX    TMP DP  RH WIND       PRES   REMARKS
BRADLEY INTL   PTCLDY    66  61  84 S6        30.16S
HARTFORD       CLEAR     67  63  87 CALM      30.16S
DANBURY        CLEAR     63  61  93 CALM      30.18S FOG
WTRBRY/OXFORD  CLEAR     64  61  88 S3        30.20S
BRIDGEPORT     PTCLDY    72  69  90 S7        30.16S
MERIDEN        PTCLDY    64  62  93 CALM      30.17S FOG
NEW HAVEN      MOCLDY    72  67  84 S5        30.17S
CHESTER        MOCLDY    70  66  88 S6        30.19S
GROTON         PTCLDY    68  66  93 S6        30.17S
WILLIMANTIC    MOCLDY    64  61  90 NE5       30.18F

 IN RI

CITY           SKY/WX    TMP DP  RH WIND       PRES   REMARKS
PROVIDENCE     PTCLDY    65  61  87 S5        30.18F
BLOCK ISLAND   MOCLDY    70  63  78 S7        30.19S
WESTERLY       PTCLDY    66  63  90 CALM      30.19S

 IN MA

CITY           SKY/WX    TMP DP  RH WIND       PRES   REMARKS
BOSTON         CLEAR     68  61  78 SW10      30.16F
WORCESTER      CLEAR     63  61  93 SW8       30.19S
WESTFIELD      CLEAR     62  59  90 CALM      30.16S
PROVINCETOWN   MOCLDY    66  64  94 SW8       30.18F
NANTUCKET      MOCLDY    65  63  93 W3        30.19F
$$

ANZ330-335-338-340-345-350-353-355-010700-
COASTAL MARINE OBSERVATIONS


STATION/POSITION TIME  SKY/WX   TEMP    WIND        PRES    VSBY  WAVE
                                AIR SEA DIR/SP/G                  HT/PER
                 (UTC)          (F)     (DEG/KT/KT) (MB)    (MI)  (FT/S)
NY HARB ENTRANCE NOT AVBL
4S FIRE IS       NOT AVBL
23SW MTP         0600            71 70              1021.7          3/ 8
HUDSON CANYON    0600            74 74  210/ 10/ 12 1022.2          3/ 7
EXECUTION ROCKS  0600            72 70  190/ 12/ 16   N/A
WESTERN LI SOUND 0600            72     190/  8/ 12   N/A           0
CENTRAL LI SOUND 0500            72 72  200/ 14/ 17   N/A           2/ 3
EASTERN LI SOUND 0500            69 68  210/  2/  4   N/A
ROBBINS REEF     0600            72     170/  9/ 10   N/A
$$


>>>>>>>>>>>>>>>>>>>>>>>>>>>> KEY <<<<<<<<<<<<<<<<<<<<<<<<<<<
>                                                          <
>     SKY/WX - SKY CONDITION/PRESENT WEATHER               <
>     TMP    - TEMPERATURE IN FAHRENHEIT                   <
>     DP     - DEWPOINT IN FAHRENHEIT                      <
>     RH     - RELATIVE HUMIDITY IN PERCENT                <
>     WIND   - DIRECTION AND SPEED IN MPH                  <
>     PRES   - MEAN SEA LEVEL PRESSURE IN INCHES OF HG     <
>     WCI    - WIND CHILL INDEX                            <
>     VSB    - VISIBILITY IN MILES                         <
>     HX     - HEAT INDEX                                  <
>     TC     - TEMPERATURE IN CELSIUS                      <
>     VRB    - VARIABLE WIND DIRECTION                     <
>                                                          <
>>>>>>>>>>>>>>>>>>>>>>>>>>>> KEY <<<<<<<<<<<<<<<<<<<<<<<<<<<




USA.gov is the U.S. government's official web portal to all federal, state and local government web resources and services.